Weather in Taupo

New Zealand     38°41′35″S   176°04′33″E
temp.,
°C
wind,
m/s
gust,
m/s
humid.,
%
clouds,
%
prec.,
mm/h
press.,
hPa
HPBL,
m
23 april, fri
fri2300:00+12wnw118159 0.0 1014304
03:00+11n1184100 0.0 1013203
06:00+11nnw0187100 0.0 1013197
09:00+11nne1185100 0.0 1014288
12:00+13ssw1176100 0.0 1013354
15:00+13ssw1271100 0.0 1010412
18:00+15nnw3661100 0.0 1010479
21:00+13wnw2481100 0.4 1011352
24 april, sat
sat2400:00+13nnw1280100 0.5 1010279
03:00+13nnw1281100 0.1 1010273
06:00+13nw238369 0.2 1010286
09:00+14w567146 0.1 10111024
12:00+16wsw57610 0.1 1011981
15:00+18w57550 0.0 10091300
18:00+15w797499 0.0 1010791
21:00+14w5779100 0.0 1011700
25 april, sun
sun2500:00+13w688165 0.0 1011809
03:00+14w797356 0.1 10101141
06:00+12wsw9127111 0.1 10111123
09:00+12wsw9136641 0.0 10131354
12:00+14wsw912571 0.0 10111301
15:00+15wsw912605 0.0 10101530
18:00+14w79744 0.0 1011932
21:00+13w687878 0.0 1012600
26 april, mon
mon2600:00+12w588293 0.0 1012548
03:00+11wsw4683100 0.0 1012480
06:00+11wsw238329 0.0 1012388
09:00+11w1280100 0.0 1013477
12:00+12ssw2373100 0.0 1011466
15:00+12w4576100 2.1 1010658
18:00+12wnw467612 2.7 1009816
21:00+11wsw687748 0.0 1010885
27 april, tue
tue2700:00+10wsw697693 0.0 1010781
03:00+10wsw59753 0.0 1010741
06:00+10sw47785 0.0 1010522
09:00+10ssw247917 0.1 1012402
12:00+11w11704 0.1 1012417
15:00+11ese786844 0.1 1012501
18:00+9ese6875100 0.1 1015611
21:00+8ese6975100 0.2 1017650